Regional Weather Roundup
Issued by NWS

Home | Current Version | Previous Version | Graphics & Text | Print | Product List | Glossary Off
Versions: 1 2 3 4 5 6 7 8 9 10 11 12 13 14 15 16 17 18 19 20 21 22 23 24 25 26 27 28 29 30 31 32 33 34 35 36 37 38 39 40 41 42 43 44 45 46 47 48 49 50

000
ASUS43 KDTX 040010
RWRMI
MICHIGAN HOURLY REGIONAL WEATHER ROUNDUP
NATIONAL WEATHER SERVICE DETROIT/PONTIAC MI
ISSUED BY NATIONAL WEATHER SERVICE GRAND RAPIDS MI
700 PM EST SAT DEC 03 2016

NOTE: "FAIR" INDICATES FEW OR NO CLOUDS BELOW 12,000 FEET WITH NO
SIGNIFICANT WEATHER AND/OR OBSTRUCTION TO VISIBILITY.

MIZ047>049-052>055-059>063-066>070-074>076-081>083-040100-
SOUTHEAST LOWER MICHIGAN

CITY           SKY/WX    TMP DP  RH WIND       PRES   REMARKS
ADRIAN         CLOUDY    36  26  67 NW3       30.30F
6HR MIN TEMP:  36; 6HR MAX TEMP:  36;

ALMA           CLOUDY    36  30  79 W6        30.28F WCI  31
ANN ARBOR      CLOUDY    35  30  82 CALM      30.28F
BAD AXE        CLOUDY    36  32  85 SW3       30.27S
6HR MIN TEMP:  36; 6HR MAX TEMP:  38;

DETROIT CITY   CLOUDY    37  28  70 W5        30.29F WCI  33
6HR MIN TEMP:  37; 6HR MAX TEMP:  39;

DETROIT        CLOUDY    37  29  72 W3        30.30F
6HR MIN TEMP:  37; 6HR MAX TEMP:  39;

FLINT          CLOUDY    36  30  79 SW5       30.29S WCI  32
6HR MIN TEMP:  36; 6HR MAX TEMP:  38;

GROSSE ILE     CLOUDY    37  29  75 CALM      30.29S
6HR MIN TEMP:  37; 6HR MAX TEMP:  38;

HILLSDALE      CLOUDY    34  28  80 NW5       30.26S WCI  30
HOWELL         CLOUDY    36  29  77 W3        30.28S
6HR MIN TEMP:  35; 6HR MAX TEMP:  37;


CITY           SKY/WX    TMP DP  RH WIND       PRES   REMARKS
JACKSON        CLOUDY    35  27  72 W3        30.28S
6HR MIN TEMP:  35; 6HR MAX TEMP:  36;

LANSING        CLOUDY    36  28  73 W6        30.29F WCI  31
6HR MIN TEMP:  36; 6HR MAX TEMP:  37;

MASON          CLOUDY    35  30  83 CALM      30.28S
MONROE         CLOUDY    36  31  82 CALM      30.29F
6HR MIN TEMP:  36; 6HR MAX TEMP:  37;

MT. CLEMENS    CLOUDY    38  30  71 W7        30.26F WCI  33
6HR MIN TEMP:  38; 6HR MAX TEMP:  40;

PONTIAC        CLOUDY    35  29  78 W5        30.27S WCI  31
6HR MIN TEMP:  35; 6HR MAX TEMP:  37;

PORT HOPE        N/A     37  34  89 W3        30.25S
6HR MIN TEMP:  37; 6HR MAX TEMP:  41; 6HR PCP:  0.01;

PORT HURON     CLOUDY    37  30  75 CALM      30.28F
TRI CITIES     CLOUDY    37  32  82 SW7       30.28F WCI  32
6HR MIN TEMP:  37; 6HR MAX TEMP:  39;

YPSILANTI      CLOUDY    37  31  78 CALM      30.29F
6HR MIN TEMP:  37; 6HR MAX TEMP:  39;

$$
MIZ043>046-050>051-056>058-064>065-071>073-077>080-040100-
SOUTHWEST LOWER MICHIGAN

CITY           SKY/WX    TMP DP  RH WIND       PRES   REMARKS
BATTLE CREEK   CLOUDY    35  27  72 W3        30.29S
6HR MIN TEMP:  35; 6HR MAX TEMP:  36;

BENTON HARBOR  CLOUDY    36  25  64 W5        30.30S WCI  32
6HR MIN TEMP:  36; 6HR MAX TEMP:  38;

BIG RAPIDS     CLOUDY    35  28  76 W3        30.27S
6HR MIN TEMP:  35; 6HR MAX TEMP:  38;

COLDWATER      CLOUDY    35  26  69 CALM      30.28S
6HR MIN TEMP:  35; 6HR MAX TEMP:  37;

HOLLAND        CLOUDY    36  28  73 CALM      30.29F
6HR MIN TEMP:  36; 6HR MAX TEMP:  37;

GRAND RAPIDS   CLOUDY    35  27  72 W7        30.29S WCI  29
6HR MIN TEMP:  35; 6HR MAX TEMP:  36; 6HR PCP: TRACE;

KALAMAZOO      CLOUDY    36  26  67 W5        30.29S WCI  32
6HR MIN TEMP:  35; 6HR MAX TEMP:  37;

MARSHALL       CLOUDY    34  26  72 CALM      30.28S
6HR MIN TEMP:  34; 6HR MAX TEMP:  37;

MOUNT PLEASANT CLOUDY    36  29  76 W3        30.27S
6HR MIN TEMP:  36; 6HR MAX TEMP:  39;

MUSKEGON       CLOUDY    36  27  69 CALM      30.29F
6HR MIN TEMP:  36; 6HR MAX TEMP:  37; 6HR PCP: TRACE;

STURGIS        CLOUDY    35  26  70 CALM      30.28S
6HR MIN TEMP:  35; 6HR MAX TEMP:  37;

$$
MIZ016>042-040100-
NORTHERN LOWER MICHIGAN

CITY           SKY/WX    TMP DP  RH WIND       PRES   REMARKS
ALPENA         CLOUDY    37  31  78 CALM      30.25F
6HR MIN TEMP:  37; 6HR MAX TEMP:  41;

BEAVER ISLAND  CLOUDY    37  31  78 CALM      30.25S
BELLAIRE       CLOUDY    34  34  98 S3        30.26F
6HR MIN TEMP:  34; 6HR MAX TEMP:  37;

CADILLAC       CLOUDY    33  31  92 W5        30.24S WCI  28
CHARLEVOIX     CLOUDY    37  34  90 SE3       30.27F
6HR MIN TEMP:  36; 6HR MAX TEMP:  40;

GAYLORD        CLOUDY    34  31  88 SW5       30.23R WCI  30
6HR MIN TEMP:  34; 6HR MAX TEMP:  37; 6HR PCP:  0.02;

HOUGHTON LAKE  CLOUDY    35  30  82 W7        30.25S WCI  29
6HR MIN TEMP:  35; 6HR MAX TEMP:  38;

MANISTEE       CLOUDY    35  29  78 CALM      30.28S
OSCODA         CLOUDY    38  33  83 CALM      30.25F
6HR MIN TEMP:  37; 6HR MAX TEMP:  43;

PELLSTON       CLOUDY    36  31  82 CALM      30.25F
6HR MIN TEMP:  35; 6HR MAX TEMP:  40;

TRAVERSE CITY  LGT RAIN  36  33  89 SW3       30.26S
6HR MIN TEMP:  36; 6HR MAX TEMP:  41; 6HR PCP:  0.09;

LUDINGTON      CLOUDY    34  28  79 W3        30.27F
6HR MIN TEMP:  34; 6HR MAX TEMP:  36;

$$
MIZ007>008-015-040100-
EASTERN UPPER MICHIGAN

CITY           SKY/WX    TMP DP  RH WIND       PRES   REMARKS
KINROSS        FLURRIES  33  32  96 N5        30.25F WCI  29
6HR MIN TEMP:  32; 6HR MAX TEMP:  37; 6HR PCP: TRACE;

MACKINAC ISLAN CLOUDY    35  31  83 N10G16    30.24F WCI  27
NEWBERRY       CLOUDY    32  32  99 CALM      30.25S
6HR MIN TEMP:  32; 6HR MAX TEMP:  38;

S. S. MARIE    MOCLDY    34  28  79 N5        30.24F WCI  30
6HR MIN TEMP:  34; 6HR MAX TEMP:  39; 6HR PCP:  0.01;

$$
MIZ004>006-011>014-085-040100-
CENTRAL UPPER MICHIGAN

CITY           SKY/WX    TMP DP  RH WIND       PRES   REMARKS
MANISTIQUE     CLOUDY    33  31  94 CALM      30.25S
6HR MIN TEMP:  33; 6HR MAX TEMP:  38;

ESCANABA       CLOUDY    35  29  78 W3        30.25F
6HR MIN TEMP:  34; 6HR MAX TEMP:  37;

MENOMINEE      CLOUDY    33  24  69 CALM      30.28R
6HR MIN TEMP:  32; 6HR MAX TEMP:  35;

SAWYER-GWINN   CLOUDY    32  30  93 E3        30.22F
$$
MIZ001>003-009>011-084-040100-
WESTERN UPPER MICHIGAN

CITY           SKY/WX    TMP DP  RH WIND       PRES   REMARKS
IRON MOUNTAIN  CLOUDY    31  27  85 CALM      30.22R
6HR MIN TEMP:  31; 6HR MAX TEMP:  35; 6HR PCP: TRACE;

HOUGHTON       CLOUDY    32  27  81 SW5       30.20F WCI  27
6HR MIN TEMP:  32; 6HR MAX TEMP:  33; 6HR PCP: TRACE;

COPPER HARBOR    N/A     33  32  96 CALM      30.23F
6HR MIN TEMP:  33; 6HR MAX TEMP:  36;

IRONWOOD       CLOUDY    29  24  82 S6        30.22S WCI  23
6HR MIN TEMP:  29; 6HR MAX TEMP:  32;

$$

ABBREVIATIONS USED IN REMARKS
   TC - TEMPERATURE IN CELSIUS
  WCI - WIND CHILL INDEX
   HX - HEAT INDEX
  VSB - VISIBILITY





USA.gov is the U.S. government's official web portal to all federal, state and local government web resources and services.